2018 UA Plumbers & Pipefitters 5k Pub Crawl Event

Downtown Ann Arbor
2018-08-13
Starts on: 2018-08-13
Where: Downtown Ann Arbor
Categories: 5k Run/Walk 5k and Pub Crawl Pub Crawl
Description: Start and Finish Main and Liberty in Downtown Ann Arbor - join us on August 13, 2018 for the UA Plumbers & Pipe Fitters 5K and Pub Crawl! In collaboration with the Ann Arbor Convention & Visitors Bureau.
Male Masters 5k run/walk
name bib rank time pace hometown
Jeff Novak 200 1 00:20:17.470 06:32 Plymouth, MI
Ty Tessmer 73 2 00:20:29.390 06:36 Ann Arbor, MI
Eric Bursch 212 3 00:22:02.550 07:06 Ann Arbor, MI
JEFFREY CLARK 147 4 00:22:03.270 07:06 ANN ARBOR, MI
Leo Gibson 264 5 00:22:53.930 07:22 Ann Arbor, MI
Louis Breskman 289 6 00:23:41.410 07:38 Ann Arbor, MI
Timothy Hammack 44 7 00:24:15.770 07:49 Minneapolis, MN
Joe Wisdom 42 8 00:24:19.450 07:50 Los Angeles, CA
Michael Brown 31 9 00:24:34.900 07:55 Fort Lauderdale, FL
George Ketzner 162 10 00:25:08.490 08:06 Dexter, MI
James King 13 11 00:25:21.400 08:10 San Jose, CA
Jason Schneehagen 202 12 00:25:27.940 08:12 Ann Arbor, MI
Chris Haslinger 1 13 00:25:28.350 08:12 Annapolis, MD
Kenneth Wood 12 14 00:25:39.410 08:16 Morgan Hill, CA
Michael Munson 298 15 00:25:41.790 08:16 Ann Arbor, MI
Brendan Gould 105 16 00:25:49.660 08:19 Melbourne, Australia, VIC
Dan Coady 254 17 00:25:49.920 08:19 Braintree, MA
Travis Watson 114 18 00:25:56.580 08:21 Noble, OK
Jordan Lubetkin 168 19 00:26:00.320 08:22 Ann Arbor, MI
Rob Packard 190 20 00:26:10.490 08:26 Tecumseh, MI
Dan Julius 45 21 00:26:10 08:26 Menasha, WI
Randy Lorge 43 22 00:26:35.220 08:34 Shawano, WI
William Benbow 111 23 00:26:41.660 08:36 Martinsburg, WV
Chris Holda 169 24 00:26:45.230 08:37 Manchester, MI
Charles Ketner 9 25 00:27:06.670 08:44 Nokesville, VA
Paul Garcia 257 26 00:27:26.420 08:50 Hollister, CA
John Reed 191 27 00:27:27.500 08:50 Parma, MI
James Krupp 126 28 00:27:30.750 08:52 Columbus, OH
Rich Gonzalez 149 29 00:27:36.840 08:53 Ann Arbor, MI
Sasha Stevens 52 30 00:28:10.500 09:04 Santa Maria, CA
Charlie Brown 204 31 00:28:13.240 09:05 Ann Arbor, MI
David Geith 40 32 00:28:21.390 09:08 Los Angeles, CA
Russell Hardy 138 33 00:28:22.710 09:08 Berryton, KS
Jeff Jones 266 34 00:28:41.260 09:14 Rockwood, MI
Sam Ornelas 118 35 00:28:47.930 09:16 Tallahassee, FL
Russ Corr 299 36 00:29:05.920 09:22 Haverhill, MA
Daniel Feder 272 37 00:29:06.960 09:22 Ann Arbor, MI
Wes MCoy 260 38 00:29:07.260 09:23 Hurricane, WV
Daniel Pellegrino 6 39 00:29:08.720 09:23 Reno, NV
Gregory Tyler 194 40 00:29:09.810 09:23 Ypsilanti, MI
Joel Aragon 88 41 00:29:19.640 09:27 Brighton, CO
Jerome Van Hulle 263 42 00:29:32.550 09:31 Livonia, MI
Will Nickell 103 43 00:30:04.610 09:41 West Valley, UT
Gale Dean 213 44 00:30:10.850 09:43 St.Paul, MN
Rick Gale 184 45 00:30:11.120 09:43 Woodbury, MN
Jonathan Lemke 121 46 00:30:14.950 09:44 Woodbury, MN
Brian Hutto 5 47 00:30:22.130 09:47 San Diego, CA
David Fisher 173 48 00:30:24.200 09:47 Ann Arbor, MI
Jeff Molnar 37 49 00:30:26.940 09:48 Blissfield, MI
Jason Skiba 189 50 00:30:38.610 09:52 Ann Arbor, MI
Craig Brandt 83 51 00:30:41.860 09:53 Maryville, IL
Bob Hansen 96 52 00:30:45.680 09:54 Gibsonburg, OH
David Atkins 145 53 00:30:51.890 09:56 Canton, MI
John Dillard 94 54 00:30:59.580 09:59 Bessemer, AL
John Jacob 123 55 00:31:11.880 10:03 Niagara Falls, NY
Paul Kirk 50 56 00:31:46.900 10:14 Downingtown, PA
Steven Purdy 141 57 00:31:51.470 10:15 Silverton, OR
Tony Esposito 231 58 00:32:19.370 10:24 Ann Arbor, MI
Zackery Hill 89 59 00:32:35.880 10:30 Arvada, CO
Robbie Abruscati 46 60 00:32:48.360 10:34 Hollywood, FL
Levi Pafford 108 61 00:32:57.490 10:37 Cheyenne, WY
Jefferson Davis 199 62 00:33:07.900 10:40 Brighton, MI
Robert Fore 68 63 00:33:16.970 10:43 Roseville, CA
David Gibson 18 64 00:33:20.820 10:44 Auburn, WA
Joe Waldroup 87 65 00:33:39.370 10:50 Cassville, GA
William Jones 267 66 00:33:43.280 10:51 Rockwood, MI
Omer Ketola 150 67 00:33:56.900 10:56 Pinckney, MI
Glen Breaux 132 68 00:34:16.350 11:02 Grand Rapids, MI
Paul Padot 226 69 00:34:25.970 11:05 Trenton, MI
William Linkins 30 70 00:34:39.100 11:09 Centreville, MD
George Sotiropoulos 201 71 00:34:43.860 11:11 Saline, MI
Joe Tavares 20 72 00:35:16.340 11:21 Grants Pass, OR
Seth Kamarad 192 73 00:35:37.960 11:28 Cheyenne, WY
Darin Nordenstrom 127 74 00:36:06.710 11:38 Los Angeles, CA
James Musial 172 75 00:36:19.690 11:42 New Boston, MI
Jeff Reiter 122 76 00:36:30.900 11:45 Kenosha, WI
Stephan Boyd 92 77 00:36:37.130 11:47 Denver, CO
Thomas Aten 66 78 00:37:15.630 12:00 Sacramento, CA
Nathan Tiemeir 139 79 00:37:43.400 12:09 Dayton, OH
Kristopher Winget 142 80 00:37:43.810 12:09 Bountiful, UT
Jeremy Garza 60 81 00:37:55.280 12:13 Lansing, MI
Todd Combs 119 82 00:38:42.500 12:28 Harrison, MI
John Thornton 51 83 00:39:18.930 12:39 Pedricktown, NJ
Matthew Davie 69 84 00:39:54.610 12:51 Ione, CA
Tony Ourlian 160 85 00:40:02.590 12:53 Grosse Pointe, MI
Glen Aspen 19 86 00:40:05.510 12:54 Unknown
Sergio Sanchez 262 87 00:40:54.990 13:10 Los Angeles, CA
Gerald Trevino 237 88 00:41:04.600 13:13 Los Angeles, CA
Bryan Lee 32 89 00:41:26.990 13:21 Chicago, IL
Domingo Valadez 152 90 00:43:38.460 14:03 Temperance, MI
Jason Joyce 16 91 00:44:21.510 14:17 Hayward, CA
Chuck Graham 41 92 00:45:01.640 14:30 Louisville, KY
Mark Likeness 14 93 00:47:20.290 15:14 Pleasanton, CA
Dominic DePiero 21 94 00:48:13.800 15:32 Florence, OR
Ira Browwnridge 180 95 00:48:21.770 15:34 Ypsilanti, MI
Craig Spindler 100 96 00:48:51.550 15:44 Hortonville, WI
Jeff Robedeaux 99 97 00:48:51.580 15:44 Kaukauna, WI
Dale Odell 161 98 00:49:52.510 16:03 Victorville, CA
John Tuori 177 99 00:52:56.370 17:03 Howell, MI
John Pint 26 100 00:55:13.250 17:47 Walker, IA